User: anonymous   Login
Location: G�ppingen
(48.7089°N, 9.6563°E)
Time: 10:56:32
(UTC+02:00)
Language:

PicSat - Orbit

View from above orbital plane
View from above orbital plane
View from above satellite
View from above satellite

Ground track
Ground track

The orbit data is extracted from the following two-line orbital elements,

1 43131U 18004W   19286.85954499  .00001646  00000-0  70028-4 0  9992
2 43131  97.4787 354.7359 0008996 192.4411 167.6606 15.24420024 97367
Epoch (UTC): 13 October 2019 20:37:44
Eccentricity: 0.0008996
inclination: 97.4787°
perigee height: 486 km
apogee height: 499 km
right ascension of ascending node: 354.7359°
argument of perigee: 192.4411°
revolutions per day: 15.24420024
mean anomaly at epoch: 167.6606°
orbit number at epoch: 9736

The dashed part of the orbit path shows where the satellite is in the earth's shadow,  

DLR